Location: Benque
(43.2594°N, 0.9178°E)
Time: 17:36:02
(UTC+00:00)

CSL-04 Rocket - Pass Details

Date: 24 January 2020
Orbit: 806 x 860 km, 99.0° (Epoch: 26 February)

Event Time Altitude Azimuth Distance (km) Brightness Sun altitude
Rises 18:43:20 0° 170° (S) 3,388 6.8 -19.3°
Reaches altitude 10° 18:45:41 10° 173° (S) 2,464 6.1 -19.7°
Maximum altitude 18:51:09 71° 257° (WSW) 906 4.0 -20.7°
Drops below altitude 10° 18:56:43 10° 341° (NNW) 2,504 6.3 -21.7°
Sets 18:59:08 0° 344° (NNW) 3,447 7.0 -22.1°
